(362183) = 2005 ER120 = 2007 UE65 = 2009 FM62

Discovered at Purple Mountain on 2009-03-23 by PMO NEO Survey Program.

Orbit

Orbit type: Main Belt

Note: WebGL enabled browser required.

epoch2023-09-13.0
epoch JD2460200.5
perihelion date2020-09-10.96279
perihelion JD2459103.46279
argument of perihelion (°)318.01808
ascending node (°)214.33418
inclination (°)4.76367
eccentricity0.1381740
perihelion distance (AU)2.1252189
Tisserand w.r.t. Jupiter3.5
ΔV w.r.t. Earth (km/sec)9.2
semimajor axis (AU)2.4659489
mean anomaly (°)279.22165
mean daily motion (°/day)0.25452340
aphelion distance (AU)2.807
period (years)3.87
P-vector [x]-0.98980180
P-vector [y]0.14244624
P-vector [z]0.00121280
Q-vector [x]-0.13453053
Q-vector [y]-0.93193153
Q-vector [z]-0.33675682
absolute magnitude17.64
phase slope0.15
uncertainty0
referenceMPEC 2023-Y63
observations used155
oppositions14
arc length (days)7358
first opposition used2003
last opposition used2023
residual rms (arc-secs)0.82
perturbers coarse indicatorM-v
perturbers precise indicator003Ek
first observation date used2003-10-25.0
last observation date used2023-12-17.0
computer nameMPCLINUX
JD of orbit computation2456937.456125
perihelion JD uncertainty (days)1.3693E-04
argument of perihelion uncertainty (°)5.5030E-05
ascending node uncertainty (°)4.7046E-05
inclination uncertainty (°)8.0802E-06
eccentricity uncertainty 1.0216E-07
perihelion distance uncertainty (AU)2.3378E-07
Minimum Orbit Intersection Distances (in AU)
for orbit epoch: 2460200.5, reference: E2023-Y63
Mercury1.73064
Venus1.41242
Earth1.13171
Mars0.49121
Jupiter2.1698
Saturn6.5329
Uranus16.3253
Neptune27.078

Observations

155 total observations over interval: 2003 10 25.28586 – 2023 12 17.361289
These data are available for download (format description).

